www.pogodaiklimat.ru

Погода и климат >> Архив погоды >> Украина >> Павлоград


ПОГОДА в Павлограде

  • Прогноз погоды в Павлограде
  • Монитор погоды в Павлограде

АРХИВ ПОГОДЫ в Павлограде

Время (UTC), дата Ветер
(напр.,м/с)
 
Видим.   Явления Облачность Т
(С)
Тd
(С)
f
(%)
Тe
(С)
Тes
(С)
Комфортность P
(гПа)
Po
(гПа)
Тmin
(С)
Tmax
(С)
R
(мм)
R24
(мм)
S
(см)
03 15.08 штиль 0 13 км 1/0
[Ac trans]
+14.2 +11.8 85 +14 +14 1010.8 999.9
06 15.08 ЮВ 3 16 км 3/0
[Ci fib]
+24.3 +11.8 46 +26 +31 жарко 1010.3 999.8 +13.5
09 15.08 ЮВ 4 20 км 8/0
[Ci]
+30.4 +8.9 26 +30 +38 жарко 1008.7 998.4
12 15.08 ЮВ 4 23 км 9/0
[Ac trans Cc]
+32.6 +7.6 21 +31 +36 жарко 1007.6 997.4
15 15.08 штиль 0 20 км 9/6 600 м
[Sc Ac trans]
+29.2 +16.8 47 +33 +33 очень
душно
1006.7 996.4
18 15.08 штиль 0 10 км 10/8 600 м
[Cb cap Ac trans]
+24.9 +15.5 56 +28 +28 жарко 1007.2 996.7 +33.2
21 15.08 Ю 2 10 км 10/8 600 м
[Cb cap Ac trans]
+22.8 +13.5 56 +26 +26 жарко 1007.4 996.9
00 16.08 СВ 3 10 км 10/8 600 м
[Cb cap Ac trans]
+22.4 +13.0 55 +25 +25 комфорт 1006.5 996.0
03 16.08 З 1 13 км 4/0
[Ac trans Ci fib]
+18.3 +12.8 70 +20 +20 1007.5 996.8
06 16.08 СЗ 1 17 км 3/0
[Cc]
+22.7 +13.8 57 +26 +33 жарко 1007.6 997.1 +17.3
09 16.08 СЗ 2 20 км 3/0
[Cc]
+29.5 +11.8 34 +30 +43 жарко 1006.5 996.2
12 16.08 З 2 22 км 8/1 1000 м
[Cu hum Ci fib]
+31.0 +14.2 36 +33 +41 душно 1006.1 995.9
18 16.08 З 2 10 км 9/4 600 м
[Sc Ac trans Ci]
+24.4 +17.0 63 +28 +28 душно 1007.3 996.8 +32.0
00 17.08 З 3 10 км 8/0
[Cc]
+18.2 +15.1 82 +19 +19 1008.3 997.6
06 17.08 СЗ 2 13 км 10/8 600 м
[Sc Ac As]
+18.3 +15.8 85 +19 +20 1008.9 998.2 +17.0
12 17.08 З 3 19 км 9/8 600 м
[Cb calv Ac trans]
+22.9 +14.8 60 +27 +28 душно 1008.9 998.4
18 17.08 СЗ 2 10 км 8/3 1000 м
[Sc Ac trans]
+19.0 +14.3 74 +21 +21 комфорт 1010.3 999.6 +24.0
00 18.08 штиль 0 4000 м дымка 1/0
[Ci fib]
+13.1 +12.0 93 +13 +13 1011.1 1000.2
03 18.08 штиль 0 8000 м дымка 6/1 1000 м
[Sc Cc]
+13.9 +13.2 96 +13 +13 1011.3 1000.4
06 18.08 З 2 14 км 9/8 600 м
[Cb cap Ac trans]
+18.3 +14.9 81 +19 +20 1011.8 1001.1 +12.0
09 18.08 СЗ 2 19 км 8/8 600 м
[Cu med, cong]
+21.6 +14.2 63 +25 +27 комфорт 1012.2 1001.6
12 18.08 З 3 21 км 9/8 600 м
[Cu med, cong Ac trans]
+22.8 +14.9 61 +27 +28 душно 1012.8 1002.2
15 18.08 СЗ 2 20 км 9/8 1000 м
[Sc Ac trans]
+21.1 +14.4 66 +24 +24 комфорт 1013.6 1002.9
18 18.08 штиль 0 10 км 8/3 600 м
[Sc Ac trans]
+18.6 +14.1 75 +19 +19 1015.0 1004.2 +23.0
00 19.08 З 1 4000 м дымка 6/0
[Ac trans Ci fib]
+14.1 +12.2 88 +14 +14 1016.4 1005.5
03 19.08 штиль 0 8000 м дымка 3/0
[Ac trans Cc]
+13.3 +12.0 92 +13 +13 1017.7 1006.7
06 19.08 СВ 2 15 км 3/0
[Ac trans]
+20.4 +13.0 62 +23 +28 комфорт 1018.1 1007.4 +13.0
09 19.08 СВ 2 20 км 3/3 1000 м
[Cu hum]
+25.2 +14.8 52 +28 +37 жарко 1017.9 1007.3
12 19.08 ЮЗ 1 23 км 4/4 1000 м
[Cu med, cong]
+26.8 +13.1 43 +29 +36 жарко 1017.6 1007.1
15 19.08 СВ 1 22 км 3/3 1000 м
[Sc diur, vesp]
+27.8 +11.8 37 +29 +30 жарко 1017.7 1007.2
18 19.08 штиль 0 10 км 3/0
[Ac trans]
+21.0 +14.3 66 +24 +24 комфорт 1018.9 1008.2 +28.4
00 20.08 штиль 0 10 км ясно +15.9 +12.4 80 +16 +16 1019.8 1008.9
06 20.08 штиль 0 17 км ясно +22.7 +14.7 61 +26 +35 жарко 1021.4 1010.7 +14.7
12 20.08 С 1 22 км 1/1 1000 м
[Cu hum]
+30.8 +13.2 34 +32 +42 жарко 1019.6 1009.2
18 20.08 штиль 0 10 км ясно +24.6 +14.9 55 +27 +27 жарко 1020.3 1009.7 +31.7
00 21.08 СВ 1 10 км ясно +19.2 +13.6 70 +22 +22 комфорт 1021.0 1010.2
06 21.08 СВ 4 17 км 1/0
[Ci fib]
+25.4 +15.7 55 +29 +33 душно 1021.2 1010.6 +16.7
18 21.08 СВ 1 10 км 1/0
[Ci fib]
+25.2 +12.1 44 +27 +27 жарко 1017.7 1007.1 +33.1

 

Местоположение метеостанции Павлоград (Днепропетровская область, Украина): широта 48.53 долгота 35.83 высота над уровнем моря 91 м.

В архиве по умолчанию представлена погода в Павлограде за последнюю неделю. Архивные данные за месяц целиком и за предыдущие месяцы, начиная с января 2011 года, Вы можете получить, выбрав интересующий диапазон дат из раскрывающегося списка и нажав кнопку "Ввод!".


*Определитесь, кто Вы:
робот инопланетянин человек

Внимание! Время в таблицах - всемирное. Для получения местного времени необходимо прибавить поправку, которая равна 2 ч.

Смотрите также архив погоды в соседних городах и на ближайших метеорологических станциях:

Погода в Синельниково (Днепропетровская область, Украина) (28 км)
Погода в Губинихе (Днепропетровская область, Украина) (52 км)
Погода в Чаплино (Днепропетровская область, Украина) (53 км)
Погода в Александрополе (Днепропетровская область, Украина) (54 км)
Погода в Лозовой (Харьковская область, Украина) (55 км)
Погода в Днепре (Днепропетровская область, Украина) (64 км)
Погода в Краснограде (Харьковская область, Украина) (99 км)
Погода в Гуляйполе (Запорожская область, Украина) (101 км)
Погода в Запорожье (Запорожская область, Украина) (101 км)
Погода в Комсомольском (Донецкая область, Украина) (129 км)

Пояснения к столбцам:

Ветер - указаны скорость ветра в м/с - средняя за 10 мин, порывы в срок и между сроками (в фигурных скобках) и направление, откуда дует ветер: С - северный, СВ - северо-восточный, В - восточный, ЮВ - юго-восточный, Ю - южный, ЮЗ - юго-западный, З - западный, СЗ - северо-западный.
Видимость - горизонтальная дальность видимости в метрах или километрах. При видимости от 1 до 10 км при отсутствии осадков обычно наблюдается дымка, при ухудшении видимости до 1 км и менее - туман. В сухую погоду видимость может ухудшаться дымом, пылью или мглою.
Явления - указаны атмосферные явления, наблюдавшиеся в срок или в последний час перед сроком; фигурными скобками обозначены явления, наблюдавшиеся между сроками (за 1-3 часа до срока); квадратными скобками обозначены град или гололедные отложения с указанием их диаметра в мм.
Облачность - указаны через наклонную черту общая и нижняя облачность в баллах и высота нижней границы облаков в метрах; квадратными скобками обозначены формы облаков: Ci - перистые, Cs - перисто-слоистые, Cc - перисто-кучевые, Ac - высококучевые, As - высокослоистые, Sc - слоисто-кучевые, Ns - слоисто-дождевые, Cu - кучевые, Cb - кучево-дождевые. Подробнее классификацию облаков см. в Атласе облаков (PDF).
T - Температура воздуха - температура, измеренная на высоте 2 м над землей.
Td - Температура точки росы - температура, при понижении до которой содержащийся в воздухе водяной пар достигнет насыщения.
f - Относительная влажность воздуха - влажноcть воздуха, измеренная на высоте 2 м над землей.
Te - Эффективная температура - температура, которую ощущает одетый по сезону человек в тени. Характеристика душности погоды. При расчете учитывается влияние влажности воздуха и скорости ветра на теплоощущения человека.
Tes - Эффективная температура на солнце - температура, которую ощущает человек, с поправкой на солнечный нагрев. Характеристика знойности погоды. Зависит от высоты солнца над горизонтом, облачности и скорости ветра. Ночью, в пасмурную погоду, а также при ветре 12 м/с и более поправка равна нулю.
P - Атмосферное давление - приведенное к уровню моря атмосферное давление.
Po - Атмосферное давление - измеренное на уровне метеостанции атмосферное давление.
Tmin - Минимальная температура - минимум температуры воздуха на высоте 2 м над землей.
Tmax - Максимальная температура - максимум температуры воздуха на высоте 2 м над землей.
R - Количество осадков - Количество выпавших осадков за период времени, мм. При наведении курсора мыши на число - период времени, за который выпало указанное количество осадков.
R24 - Количество осадков - Количество выпавших осадков за 24 часа, мм.
S - Снежный покров - Высота снежного покрова, см. При наведении курсора мыши на число - состояние снежного покрова и степень покрытия местности в баллах.